Miscellaneous Local Product
Issued by NWS North Platte, NE

Home | Current Version | Previous Version | Graphics & Text | Print | Product List | Glossary On
Versions: 1 2 3 4 5 6 7 8 9 10 11 12 13 14 15 16 17 18 19 20 21 22 23 24 25 26 27 28 29 30 31 32 33 34 35 36 37 38 39 40 41 42 43 44 45 46 47 48 49 50
000
AXUS43 KLBF 251210
MISLBF


WESTERN AND NORTH CENTRAL NEBRASKA HOURLY WEATHER ROUNDUP
NATIONAL WEATHER SERVICE NORTH PLATTE NE
600 AM CST SUN JAN 25 2015

***STATIONS NOT REPORTING VARIABLES SUCH AS SKY/WEATHER OR
PRESSURE ARE PROVIDED BY THE NEBRASKA DEPARTMENT OF
ROADS...RAWS...AND APRS NETWORKS...AND ARE NOT UNDER
NATIONAL WEATHER SERVICE QUALITY CONTROL***

...OBSERVATIONS IN AND NEAR THE EASTERN PANHANDLE OF NEBRASKA...

CITY           SKY/WX    TMP DP  RH WIND       PRES   REMARKS
PINE RIDGE     CLEAR     24  20  84 SW6       30.05R WCI  17
CHADRON        CLEAR     33  26  75 W15       30.06F WCI  23
ALLIANCE       CLEAR     33  25  72 NW18      30.05S WCI  22
SIDNEY         PTCLDY    33  24  69 NW14      30.09S WCI  23
$$

...OBSERVATIONS IN NORTH CENTRAL NEBRASKA...

CITY           SKY/WX    TMP DP  RH WIND       PRES   REMARKS
VALENTINE      CLEAR     36  29  75 NW16G24   29.96S WCI  26
THEDFORD       CLEAR     37  30  77 NW21G26   29.98R WCI  26
AINSWORTH      CLEAR     35  29  80 NW16G24   29.95R WCI  25
O`NEILL        CLOUDY    37  36  94 NW16G22   29.90R WCI  28
ORD            CLOUDY    38  29  70 NW25G33   29.89R WCI  27
BROKEN BOW     PTCLDY    38  29  70 NW29G38   29.92R WCI  26
$$

...OBSERVATIONS IN SOUTHWEST NEBRASKA AND FAR NORTHEAST COLORADO...

CITY           SKY/WX    TMP DP  RH WIND       PRES   REMARKS
WRAY           FAIR      40  25  55 NW16G29   30.07F WCI  31
HOLYOKE        FAIR      37  27  65 NW16G23   30.07S WCI  28
IMPERIAL       CLEAR     37  22  54 NW18      30.04R WCI  27
OGALLALA       CLEAR     35  26  69 NW14      30.06R WCI  25
NORTH PLATTE   CLEAR     33  26  75 NW13      30.00R WCI  24
MCCOOK         CLEAR     38  26  62 NW23      30.00R WCI  27
LEXINGTON      CLOUDY    40  30  67 NW22      29.97R WCI  30
$$

...NORTH PLATTE AREA...

CITY           SKY/WX    TMP DP  RH WIND       PRES   REMARKS
AIRPORT        CLEAR     33  26  75 NW13      30.00R WCI  24
$$

...SOME WEATHER OBSERVATIONS FROM AROUND THE REGION...

CITY           SKY/WX    TMP DP  RH WIND       PRES   REMARKS
DENVER         PTCLDY    28  24  85 S12       30.14R WCI  18
LARAMIE        CLOUDY    26  19  74 W9        30.17R WCI  17
CHEYENNE       CLEAR     35  23  61 NW12      30.12R WCI  27
SCOTTSBLUFF    CLEAR     35  28  75 W17       30.10R WCI  25
RAPID CITY     CLEAR     36  21  54 N18       30.01F WCI  26
PIERRE         CLOUDY    37  31  78 NW18      29.95R WCI  27
WINNER         CLOUDY    39  31  72 NW23G31   29.95R WCI  28
SIOUX FALLS    CLOUDY    33  32  96 N13       29.85R WCI  24
OMAHA          CLOUDY    36  32  85 N23G33    29.74R WCI  24
GRAND ISLAND   CLOUDY    38  34  85 N23G35    29.88R WCI  27
KANSAS CITY    CLOUDY    43  36  76 NW15G26   29.64S
WICHITA        CLOUDY    48  31  51 NW22G32   29.85R
HAYS           CLEAR     39  25  56 NW21      29.96R WCI  29
LIBERAL        PTCLDY    39  25  56 N20G26    30.07R WCI  30
GOODLAND       PTCLDY    38  24  57 NW25      30.06S WCI  27
$$



USA.gov is the U.S. government's official web portal to all federal, state and local government web resources and services.